GEFSSGP_500_meanwind_024.txt.gz
Wind_Speed
3 2 2 2 1 1 2 4 5 4 3 3 5 6 7 8 8 8 10 12 13 14 14 15 16 18 19 21 22 24 26 27 29 30 32 33 34 34 34 35 36 38 40 43 46 49 50 51 51
6 6 7 7 5 5 5 4 4 5 7 8 9 9 10 11 13 12 13 14 14 15 17 19 21 23 25 27 29 31 33 34 36 37 39 40 41 41 41 41 41 41 41 42 44 46 49 52 54
13 13 12 11 11 11 10 10 10 10 10 11 11 11 11 11 12 12 13 14 16 18 21 23 25 27 30 32 34 36 38 40 42 44 45 47 48 49 49 49 49 49 48 47 47 47 48 50 52
16 15 15 14 13 13 13 13 13 13 13 12 10 9 10 11 12 13 15 17 19 22 24 27 30 32 34 37 39 41 43 46 48 49 51 52 54 55 56 56 56 56 56 55 54 53 52 51 52
16 16 15 15 15 16 16 16 15 13 11 9 9 9 10 13 14 16 19 21 24 26 29 32 34 37 39 42 44 47 49 51 54 56 58 59 61 62 63 63 63 63 62 61 60 60 59 58 56
17 17 18 18 18 16 15 12 11 9 8 8 9 11 12 16 18 20 23 26 28 31 33 35 38 41 43 46 49 52 54 57 60 63 66 68 70 71 71 71 71 70 69 68 67 65 64 63 62
19 18 18 17 14 12 11 9 8 7 7 9 11 13 16 19 22 25 27 29 31 33 36 38 41 44 46 50 53 57 60 63 67 70 72 74 76 77 78 78 78 77 77 75 74 72 70 69 67
16 15 14 12 10 9 8 7 7 8 9 11 14 17 20 23 26 27 29 31 34 37 39 42 44 47 51 54 58 61 65 68 71 74 76 78 80 81 82 83 84 84 83 82 81 79 77 75 73
11 10 9 7 6 6 7 7 9 11 12 15 18 21 23 25 27 29 31 34 37 40 43 46 49 52 55 58 62 65 69 72 74 77 79 81 83 85 86 88 89 90 90 89 89 87 85 82 80
6 6 6 5 5 7 9 10 12 14 16 19 22 24 25 27 29 32 35 37 40 43 46 49 51 54 58 62 65 69 72 75 78 81 84 86 88 90 92 94 95 97 97 97 97 96 94 92 88
4 5 7 8 9 10 12 13 15 17 19 22 24 25 27 29 32 35 38 40 43 46 49 52 54 57 61 65 68 72 75 78 81 84 87 90 92 95 96 97 96 96 96 96 97 98 98 98 97
7 9 10 12 13 14 15 16 18 19 21 23 25 27 30 32 35 38 41 43 46 49 52 54 57 61 65 68 72 75 79 82 86 89 92 94 95 95 93 91 88 86 85 85 86 89 91 94 97
10 11 13 15 15 16 17 18 19 21 23 25 27 29 32 35 37 40 42 44 47 50 54 57 61 65 69 73 77 81 85 88 91 94 95 94 92 88 84 81 79 78 77 77 77 78 79 82 87
14 15 15 16 16 16 17 18 20 21 24 26 29 31 34 36 39 41 44 46 50 54 57 61 65 69 73 77 81 86 89 91 93 94 93 89 85 81 78 76 75 74 72 72 71 72 73 74 77
15 16 16 16 16 16 17 18 20 22 24 27 30 32 35 38 41 44 47 50 54 57 61 65 69 73 77 81 85 88 91 93 93 91 87 83 80 78 76 73 70 68 66 64 63 63 65 68 71
15 15 16 16 17 17 17 18 20 22 24 27 30 33 36 40 44 47 50 53 56 60 64 68 72 75 79 83 87 90 92 92 90 86 83 80 78 75 71 67 63 59 56 53 52 53 55 58 63
14 15 16 17 18 18 18 19 21 22 25 28 31 34 39 43 47 50 53 55 58 62 66 71 74 78 82 85 88 91 91 89 85 82 80 78 75 71 65 60 56 52 50 49 48 47 48 50 54
16 17 17 18 18 18 19 21 22 23 26 29 33 37 41 46 49 52 55 57 61 65 69 73 76 80 83 86 88 90 88 85 82 80 79 76 72 66 60 56 53 52 51 50 50 49 48 48 48
16 17 17 17 17 18 19 22 24 25 29 32 35 40 44 48 51 54 56 59 63 67 71 74 77 81 83 86 88 88 85 81 80 79 77 73 69 63 59 56 54 55 55 55 55 54 51 50 49
15 16 16 17 18 19 21 23 26 28 31 35 38 43 47 50 53 55 57 61 65 69 72 75 78 81 84 87 89 87 82 79 78 76 74 70 65 62 59 58 58 59 60 60 61 60 57 54 53
14 15 18 19 20 22 23 23 28 31 34 38 42 45 48 51 53 55 58 63 67 70 73 76 79 83 86 88 88 83 80 78 77 74 70 66 62 61 61 62 63 65 66 66 65 64 62 58 56
15 17 20 22 23 24 27 26 30 33 37 40 43 46 48 51 53 56 60 64 68 71 74 76 80 84 87 88 85 82 79 77 76 73 68 64 62 62 64 67 69 71 72 72 70 68 65 62 57
17 20 22 24 25 26 29 30 32 36 39 41 44 46 48 51 54 56 61 65 69 72 74 77 81 85 86 86 83 80 79 78 75 71 66 62 62 65 69 72 75 76 76 74 72 69 67 63 59
20 22 23 24 26 28 30 32 35 37 38 40 43 46 49 52 54 57 62 66 69 72 75 78 82 84 85 84 81 79 78 76 74 69 65 64 65 69 73 75 74 71 67 64 62 61 60 59 56
23 25 26 27 28 29 31 32 34 35 37 40 44 47 50 52 54 58 62 67 70 73 75 78 81 83 84 82 79 78 77 75 73 70 67 67 70 74 76 73 68 62 55 50 46 45 46 49 50
23 26 29 31 31 30 30 31 32 35 38 42 45 47 50 52 55 59 63 67 70 73 75 78 81 83 82 80 77 76 75 74 72 70 70 72 76 78 76 71 64 55 48 40 33 28 29 34 39
24 27 29 32 33 32 32 33 34 38 40 43 46 48 50 52 55 59 63 68 71 73 75 78 81 82 80 78 76 74 73 72 71 70 71 74 78 79 75 67 57 48 42 35 27 18 14 20 27
25 29 31 34 37 38 36 37 39 40 42 44 46 48 51 52 55 59 64 68 71 73 75 78 80 80 79 76 74 72 72 71 71 70 72 75 78 77 71 61 50 43 39 33 26 18 8 6 15
26 29 31 33 36 39 40 40 42 42 44 45 47 49 51 53 55 59 64 68 71 73 75 78 79 79 77 74 72 71 70 70 70 71 72 75 77 75 68 56 46 40 36 32 27 22 13 4 6
26 29 32 34 36 38 41 43 45 46 46 47 48 50 52 53 56 60 64 68 70 72 74 77 78 77 75 72 70 69 69 69 69 70 72 75 76 74 66 52 42 37 33 29 24 21 15 7 0

GEFSSGP_500_meanwind_030.txt.gz
Wind_Speed
8 9 8 7 6 5 5 5 5 6 7 6 6 6 6 6 5 4 4 5 7 9 11 13 15 17 19 21 23 24 26 28 29 30 32 33 34 35 37 38 39 40 41 42 43 43 44 45 45
13 13 12 11 11 10 9 9 9 9 8 7 7 6 6 5 6 6 7 10 12 14 16 17 19 21 23 25 26 28 29 30 31 33 34 35 37 38 39 41 42 44 45 46 47 48 49 49 50
17 16 15 14 14 13 12 11 10 10 9 8 7 6 5 6 8 10 12 14 16 17 19 21 22 24 26 27 29 30 32 33 35 36 38 40 41 43 44 45 47 48 49 50 51 52 52 53 54
18 17 16 15 14 13 13 12 11 10 8 6 5 5 7 9 12 14 16 17 19 20 22 24 25 27 28 30 32 34 36 38 40 42 44 46 47 48 50 51 53 54 55 56 57 58 58 58 58
18 17 17 16 15 14 12 11 9 7 5 5 6 7 9 13 15 17 18 19 21 22 24 26 28 30 32 35 37 39 42 44 46 49 51 53 54 56 57 59 61 62 63 64 65 65 65 65 65
18 17 16 14 13 11 9 7 6 5 6 8 10 11 13 16 18 19 20 21 23 25 27 29 32 34 37 39 42 44 47 50 52 55 57 60 62 64 66 67 69 71 72 73 73 73 73 73 73
15 13 12 10 9 7 6 6 6 8 9 11 13 14 16 17 18 20 21 23 25 27 30 32 35 38 40 43 45 48 51 54 56 59 61 64 66 69 72 74 76 78 80 80 81 81 81 80 80
10 9 7 6 5 5 6 7 8 10 11 13 14 15 17 18 20 21 23 25 28 30 33 36 39 42 44 47 49 52 54 57 60 63 66 68 71 74 78 81 83 86 87 88 89 90 89 89 87
6 4 4 5 6 7 9 9 11 12 13 14 15 16 18 19 21 23 25 28 31 34 38 41 44 47 49 51 54 56 59 62 65 69 72 75 78 82 85 88 91 93 94 96 97 97 97 96 94
3 4 6 7 9 10 11 12 13 14 14 15 16 17 18 20 22 24 28 31 35 38 42 45 48 49 51 54 57 60 63 67 70 73 76 80 83 87 91 94 97 99 100 101 101 101 100 99 98
7 8 9 10 12 12 13 13 13 14 15 16 17 18 20 22 24 27 31 35 38 42 46 48 49 51 53 56 59 63 66 70 74 77 80 84 88 93 97 100 101 102 102 101 100 99 99 98 97
11 12 12 13 13 13 13 13 14 15 16 17 19 20 22 24 27 31 35 39 42 45 48 49 51 53 55 59 62 66 70 73 77 80 85 90 94 99 102 103 104 102 100 98 96 94 92 91 90
12 13 13 13 13 13 13 14 15 16 17 19 21 23 25 28 31 34 38 42 45 48 49 50 52 55 59 62 66 69 73 76 80 84 90 95 99 102 103 102 99 97 94 91 89 87 85 84 83
12 12 12 12 12 13 14 15 16 17 19 21 23 26 28 31 34 38 41 44 47 48 49 51 54 58 61 65 69 72 75 79 83 89 94 99 101 101 99 95 91 87 85 83 82 81 80 78 77
11 11 12 12 13 14 15 16 17 19 22 24 26 28 31 34 37 40 43 45 47 48 50 52 56 60 64 67 70 74 77 82 87 92 97 99 99 96 91 87 84 82 81 80 78 76 74 72 71
11 12 12 13 14 15 16 18 19 22 24 26 28 30 33 36 39 41 43 44 46 48 51 54 58 62 66 69 72 75 80 85 90 94 97 96 93 88 84 82 81 79 77 74 72 69 67 66 65
11 12 13 14 15 17 18 20 21 24 26 28 30 32 35 37 39 41 42 44 46 49 52 56 60 64 68 70 74 78 83 87 92 95 94 91 86 82 80 80 78 76 73 71 70 68 66 64 63
12 13 14 16 17 18 20 22 23 25 27 28 30 33 35 37 38 40 42 44 47 50 54 58 62 66 68 71 75 80 85 89 92 93 90 85 81 79 78 77 75 73 72 72 72 71 70 69 67
12 14 15 17 19 19 21 23 25 26 27 28 30 32 33 35 38 40 42 45 48 52 56 60 63 66 69 72 76 81 85 89 91 90 85 81 78 77 77 75 73 73 74 74 73 72 71 71 72
13 15 16 18 20 20 21 23 25 25 25 27 28 30 32 35 38 41 43 46 50 54 57 61 64 67 70 73 77 82 86 89 89 85 81 78 77 77 76 74 74 74 75 73 70 69 67 67 69
13 15 17 18 19 20 20 21 22 22 24 26 28 31 34 37 40 42 45 48 51 55 58 62 65 67 70 74 78 83 87 88 86 81 77 76 76 76 75 74 74 76 74 69 65 61 58 55 56
13 15 16 18 19 20 20 20 22 23 25 27 30 32 36 39 41 44 46 49 53 56 59 63 65 68 71 75 79 84 86 86 83 78 75 75 76 75 74 74 75 74 70 64 58 54 50 46 43
12 14 16 17 18 19 21 21 23 25 27 29 32 35 37 40 42 45 47 50 53 56 60 63 66 69 72 75 80 84 85 83 80 76 74 75 75 74 73 74 74 71 65 57 52 49 44 39 33
11 13 14 16 18 20 22 23 26 28 30 32 34 37 39 41 43 45 48 51 53 57 60 64 66 69 72 76 80 83 84 81 77 74 73 74 73 72 72 73 72 67 58 51 46 43 39 35 29
9 12 14 17 19 21 23 25 28 30 33 36 38 40 42 43 45 47 49 51 54 57 61 64 67 69 72 76 80 83 82 79 75 72 72 73 72 70 71 73 70 63 52 45 40 37 35 33 29
8 11 15 18 19 21 23 26 29 32 35 38 41 43 46 47 48 49 51 53 55 58 61 64 67 69 72 76 80 82 80 76 73 71 71 72 71 70 71 72 69 60 49 40 35 31 29 28 26
8 11 14 16 18 21 24 27 30 34 37 40 43 46 49 52 53 53 54 55 57 59 62 65 67 69 72 76 79 81 79 75 71 70 71 71 70 69 70 72 69 60 49 39 33 28 25 23 21
7 10 13 16 20 22 25 28 32 35 38 41 45 48 51 55 56 57 57 57 58 60 63 65 67 69 72 76 78 79 77 74 70 69 69 69 69 68 69 72 69 60 50 39 31 27 23 20 17
7 10 14 17 21 24 27 30 32 35 38 42 46 49 53 56 59 60 61 60 60 61 63 65 67 69 72 75 78 78 76 72 69 68 68 68 68 68 69 71 70 62 52 40 31 27 23 21 18
9 11 14 17 19 23 26 30 34 36 40 43 46 50 54 57 61 63 64 64 63 63 64 66 67 68 71 75 77 77 75 72 68 67 66 66 66 67 68 70 70 65 55 44 33 28 24 22 19

GEFSSGP_500_meanwind_036.txt.gz
Wind_Speed
8 8 8 7 6 5 4 4 5 6 6 6 6 7 7 8 9 8 8 9 10 12 13 14 16 17 19 20 22 23 25 27 28 30 31 33 34 35 37 38 39 40 41 42 43 44 44 44 44
11 11 10 9 9 9 7 7 7 7 7 6 6 6 6 7 8 9 10 11 12 14 15 16 17 19 20 22 24 26 28 30 31 33 35 37 39 40 42 43 44 46 47 48 49 49 49 49 49
14 14 12 11 12 11 9 8 8 7 6 5 4 5 6 7 9 10 12 13 14 15 16 18 19 21 23 25 27 29 31 33 35 37 39 41 43 45 46 48 49 50 52 53 54 55 55 56 56
15 15 13 13 12 11 9 8 7 6 5 4 4 6 7 9 11 12 14 15 16 17 19 20 22 24 26 28 31 33 35 37 38 40 42 44 46 48 49 51 53 55 56 57 59 60 61 61 62
15 14 14 12 10 9 8 6 5 4 4 5 7 9 10 11 13 14 16 16 18 19 21 22 24 27 29 32 34 35 37 39 40 42 44 46 48 50 52 55 57 60 61 63 65 66 67 68 68
13 12 12 10 7 6 4 4 4 5 6 8 9 11 12 13 14 16 17 18 19 21 23 25 28 30 33 35 37 38 39 41 42 45 47 50 52 55 58 60 63 65 67 69 70 72 73 74 74
9 8 7 6 3 3 4 6 7 8 9 11 11 12 13 14 15 17 18 20 22 24 27 29 31 34 36 37 39 40 42 44 46 49 52 55 58 61 64 66 69 71 73 74 76 77 78 79 80
4 3 3 3 4 6 8 9 10 11 11 12 13 13 15 16 17 19 21 23 25 28 30 33 35 36 38 39 40 42 44 47 50 53 56 60 63 66 69 71 74 76 79 82 84 87 89 90 91
4 5 6 7 8 10 11 12 13 13 13 14 15 15 16 18 19 21 24 26 29 31 33 35 37 38 39 41 43 45 48 51 54 57 61 64 67 69 71 74 77 81 84 89 93 97 100 103 104
8 9 10 12 12 13 13 13 13 13 14 15 15 16 17 19 21 24 26 29 31 33 35 36 37 39 41 43 45 48 51 55 57 61 63 66 69 71 74 77 81 86 91 96 101 106 110 113 115
11 12 13 13 14 13 13 13 13 14 14 15 16 18 19 21 24 26 29 31 33 35 36 37 38 40 43 45 48 51 54 57 60 63 66 68 71 73 77 81 86 92 98 104 109 113 115 117 117
12 12 12 13 13 12 12 13 13 14 14 15 16 19 21 23 26 29 31 32 34 35 37 38 40 42 45 48 51 54 57 60 62 65 67 69 72 76 81 86 93 99 105 110 112 112 109 106 103
10 10 11 11 11 12 13 13 14 14 15 16 18 20 22 24 27 29 31 33 34 36 38 40 42 45 47 50 53 56 59 62 65 67 69 71 75 80 85 92 99 105 108 108 104 98 93 88 85
9 10 10 10 11 12 13 13 14 14 16 17 19 21 23 25 27 29 32 34 36 38 40 42 44 47 49 52 55 57 60 63 66 68 70 74 79 85 91 98 103 104 102 96 89 85 82 81 81
9 9 10 10 11 12 13 13 14 15 16 17 19 20 22 24 27 29 32 35 38 40 42 44 46 48 51 53 56 59 61 64 67 69 72 77 83 90 96 101 102 98 91 85 82 81 81 81 81
9 9 10 10 11 12 12 11 13 14 15 16 18 20 22 25 28 31 33 36 39 41 44 46 47 50 52 54 56 59 62 65 68 71 75 81 87 94 99 100 96 89 83 80 80 80 80 79 79
9 9 9 10 12 13 13 12 12 14 15 16 19 21 24 26 29 32 35 37 40 43 45 46 48 50 53 55 57 60 63 66 69 72 77 84 91 96 98 95 88 82 79 78 79 78 77 77 75
8 9 10 10 11 12 13 13 13 15 16 18 20 22 24 27 30 32 35 38 40 43 45 47 49 51 53 55 58 61 64 67 70 75 80 87 93 96 95 89 82 79 77 77 76 75 75 74 71
9 9 9 10 10 11 12 13 14 16 18 19 21 23 25 27 30 32 35 38 41 44 46 48 49 51 53 55 58 62 65 68 72 77 83 89 94 94 91 83 78 76 76 75 75 76 73 69 66
8 8 8 8 9 11 12 13 14 16 18 20 22 24 26 29 31 34 38 41 43 46 48 50 51 52 54 56 59 63 66 69 73 79 84 91 93 92 86 79 76 75 74 73 75 75 71 65 62
7 7 7 7 8 9 11 12 13 16 18 20 23 25 28 31 34 37 40 43 46 49 52 54 54 55 56 58 61 64 67 70 75 80 86 91 92 88 82 76 75 74 74 74 75 74 68 62 56
8 7 7 7 7 8 9 10 12 15 18 20 23 26 29 33 36 40 42 45 48 51 54 57 58 59 59 60 63 66 69 72 76 81 87 90 89 84 79 75 74 73 73 74 75 71 65 60 53
8 7 7 7 7 8 9 10 12 14 17 20 23 26 29 33 37 41 44 47 50 53 56 59 62 63 63 63 65 67 70 73 77 82 87 89 86 81 76 73 73 72 73 74 73 68 62 57 51
10 9 8 8 8 8 10 12 13 16 18 20 23 26 29 33 37 41 46 49 52 55 58 61 64 66 67 67 67 69 71 74 77 82 87 88 84 78 74 72 72 72 72 73 71 66 61 54 48
11 11 10 9 9 9 10 12 14 16 18 21 24 27 30 34 38 42 47 51 54 57 60 63 66 69 70 70 70 71 73 75 78 83 86 86 82 76 72 71 71 71 72 73 70 64 59 52 45
13 13 12 12 11 11 11 12 14 16 19 22 25 29 33 36 39 43 48 52 55 58 61 64 67 70 73 73 72 73 74 76 79 83 86 85 81 75 71 70 70 70 72 72 69 64 59 51 44
16 15 15 15 14 14 14 15 15 17 20 23 27 30 34 37 41 44 49 53 56 60 62 65 68 71 74 75 75 74 75 76 79 83 85 84 79 74 70 70 70 70 71 71 68 63 58 50 43
19 18 18 17 17 18 17 19 20 21 24 26 29 32 35 39 43 46 50 53 57 61 64 66 69 72 75 77 77 76 76 77 79 82 84 83 78 73 69 69 69 69 70 69 67 63 58 50 43
22 21 21 21 21 22 22 21 23 24 27 29 33 36 39 42 45 48 51 54 57 61 64 67 69 72 75 78 78 77 76 77 79 82 84 82 78 72 69 68 68 68 69 68 66 62 57 49 42
25 24 24 24 24 24 26 24 26 27 28 30 33 37 40 43 47 49 52 55 58 61 64 67 69 72 75 78 79 78 77 77 79 81 83 82 77 72 68 67 67 67 68 67 65 61 55 48 42

GEFSSGP_500_meanwind_042.txt.gz
Wind_Speed
6 5 5 5 6 7 8 9 10 10 11 11 10 9 7 7 6 6 6 7 8 8 9 9 10 11 12 13 15 17 19 21 23 24 25 27 28 29 30 31 32 33 34 36 37 38 40 41 42
10 9 9 9 9 10 10 11 11 10 9 8 7 6 6 6 6 7 8 8 9 9 9 10 11 13 14 16 19 21 23 24 26 27 28 29 29 30 31 33 34 35 36 37 39 40 42 43 45
13 13 13 12 11 11 11 10 10 8 7 6 5 5 5 6 7 8 9 9 9 10 11 12 14 16 18 20 22 24 25 26 27 28 29 30 30 32 33 35 36 38 39 41 42 44 45 47 48
14 14 13 12 11 10 9 8 7 5 4 4 4 5 6 7 8 9 10 10 10 11 13 15 17 19 21 23 24 26 27 27 28 29 30 31 33 34 36 37 39 41 43 45 47 48 50 51 53
12 11 11 9 7 7 6 5 4 3 3 4 6 7 8 9 9 10 11 12 12 13 15 17 20 21 23 25 26 27 27 28 29 30 32 33 35 37 39 41 43 45 47 49 51 53 54 56 58
9 7 6 4 3 3 3 3 3 4 6 7 8 8 9 10 10 11 13 14 15 17 19 21 23 25 26 27 27 28 29 30 31 33 34 36 38 40 42 44 46 48 51 53 55 57 60 62 64
4 3 2 3 4 4 5 6 7 7 8 9 10 10 10 11 11 13 14 16 18 20 22 24 25 26 27 28 29 30 31 33 34 36 37 39 41 43 45 48 50 52 55 57 60 63 66 68 71
3 3 4 6 8 8 8 9 9 10 9 10 11 11 11 12 13 14 16 18 20 22 24 25 26 27 28 29 30 32 33 35 37 39 41 43 45 47 49 51 53 56 59 62 65 68 71 75 78
8 8 9 10 11 11 11 10 10 10 10 10 11 12 12 13 14 16 18 20 21 23 24 25 26 27 29 30 32 34 36 38 40 42 44 46 47 49 51 54 56 59 62 66 69 73 76 80 85
12 12 12 12 12 12 11 10 10 10 10 11 12 12 13 14 15 17 19 20 21 22 23 24 26 28 30 32 34 36 38 40 43 45 46 48 50 51 54 56 59 62 66 69 73 77 81 86 91
12 11 11 11 11 10 10 8 9 10 10 11 12 12 14 15 16 17 18 19 20 22 23 25 27 29 32 34 36 38 40 43 45 47 48 50 52 54 56 59 62 65 68 72 76 81 86 91 97
11 9 8 8 8 9 9 9 9 10 11 11 12 13 13 14 14 15 16 17 19 21 23 25 27 30 33 35 37 39 42 44 46 48 50 51 53 55 58 60 63 67 70 75 79 84 89 96 101
9 9 8 8 8 8 9 10 10 10 11 12 13 12 12 12 12 13 15 16 18 20 23 25 28 31 33 35 37 39 41 43 45 47 49 51 53 56 59 61 64 68 72 77 82 87 93 99 103
9 9 8 8 8 8 9 10 10 9 10 10 11 11 10 11 11 12 14 16 18 21 24 27 29 31 33 35 37 39 41 43 45 47 49 50 53 56 59 62 65 70 74 79 85 91 96 100 101
9 8 8 8 8 8 9 9 9 8 8 8 8 8 8 9 10 12 14 17 20 23 26 28 30 32 34 35 38 40 41 43 46 48 49 51 54 56 59 63 67 71 76 82 88 94 97 98 95
9 8 8 8 8 8 9 10 8 7 6 6 6 6 7 8 11 13 16 19 22 25 27 30 31 33 34 36 38 40 43 45 47 50 51 53 55 57 61 64 69 73 79 85 91 95 95 93 89
9 9 9 8 8 8 8 8 7 6 5 5 5 6 7 9 11 13 16 19 22 25 28 30 32 34 35 38 40 42 44 47 50 52 54 55 57 60 63 66 71 76 81 88 92 94 92 88 83
9 9 10 10 9 9 8 7 7 6 5 5 6 7 8 9 11 13 16 18 21 25 28 31 34 36 38 40 42 44 46 49 52 55 57 59 60 62 65 69 73 78 84 89 92 90 87 83 80
11 10 11 11 10 9 8 8 7 6 6 6 7 8 9 10 12 14 16 19 22 26 30 33 35 38 41 43 45 47 49 52 55 58 60 62 63 65 67 71 75 81 86 90 90 87 83 79 78
14 13 13 12 11 11 10 9 9 9 9 9 9 10 10 11 13 15 17 21 24 28 31 34 37 40 43 46 48 50 52 54 57 60 63 65 66 68 70 73 78 83 87 89 87 84 80 77 76
17 16 14 14 14 14 13 12 12 12 12 12 12 12 12 12 14 17 20 23 26 29 32 35 38 41 45 48 51 53 55 57 59 62 66 68 69 70 72 75 80 84 87 87 84 81 78 75 73
18 18 17 16 17 16 16 16 15 15 15 15 16 15 15 15 17 19 22 26 29 31 34 37 40 43 46 49 53 55 57 59 61 64 67 70 71 72 74 77 81 85 86 85 81 78 76 75 72
20 20 20 19 20 20 19 19 17 18 18 18 19 19 18 19 20 23 26 29 32 34 37 40 42 45 48 50 54 57 59 61 63 65 68 71 73 74 75 78 82 84 85 82 78 75 74 73 71
22 23 23 23 23 22 22 23 20 20 21 21 22 22 23 23 25 27 29 32 35 38 40 42 44 47 49 52 54 57 60 63 64 67 69 72 74 75 77 79 82 84 83 79 76 73 72 71 69
23 25 26 27 26 25 25 26 21 23 24 24 25 25 26 27 28 30 32 35 37 40 42 44 46 48 51 53 55 58 61 63 66 68 70 73 75 76 77 79 82 83 81 77 74 71 70 69 67
25 26 28 31 30 29 29 29 23 25 26 26 27 28 30 31 31 32 34 37 40 42 45 46 48 50 52 54 56 58 61 64 66 69 71 73 76 77 78 79 81 81 79 75 72 70 68 67 65
27 28 31 34 35 34 33 31 27 27 28 29 30 31 32 33 34 35 37 39 42 44 47 49 50 52 53 55 57 58 61 63 66 69 72 74 76 77 78 79 80 80 78 74 70 68 67 66 63
29 30 32 35 38 39 37 34 29 27 30 32 33 34 35 36 37 38 40 42 44 47 49 51 52 54 55 56 57 59 61 63 66 69 72 74 76 78 78 79 80 79 76 72 69 67 65 64 62
30 31 33 36 39 42 42 36 31 31 33 35 36 37 39 39 40 42 43 44 47 49 51 53 54 56 56 57 58 59 61 62 66 69 72 74 76 77 78 78 79 78 75 72 68 65 64 62 60
31 31 34 37 40 43 46 39 31 34 36 38 39 41 43 42 43 44 45 47 49 51 53 55 56 57 58 57 58 59 61 62 65 68 71 74 76 77 78 78 78 77 74 71 67 64 63 61 59

GEFSSGP_500_meanwind_048.txt.gz
Wind_Speed
7 6 5 4 4 4 5 5 5 5 5 4 4 4 4 3 2 2 2 3 3 3 4 5 7 8 10 11 13 14 15 17 17 18 18 18 19 19 19 20 20 21 22 23 24 25 26 26 27
11 10 8 7 7 7 7 7 7 6 4 3 2 2 1 2 2 2 2 3 4 5 6 7 9 11 13 14 16 17 18 19 19 20 20 20 20 20 21 21 22 23 23 24 26 27 28 29 30
13 11 10 9 9 8 7 6 5 4 3 1 0 1 2 2 3 4 4 5 6 7 9 10 12 14 16 18 19 20 20 21 21 21 21 22 22 23 24 24 25 26 27 28 28 29 31 32 33
12 10 9 9 8 7 6 4 3 1 1 2 3 4 5 5 5 6 6 7 9 10 12 13 15 17 19 20 21 21 21 22 22 23 23 24 25 26 27 28 29 30 31 32 33 33 34 35 36
9 7 6 6 5 4 3 2 3 4 5 5 6 7 7 7 7 8 9 10 11 12 14 16 18 19 20 21 21 22 22 22 23 24 25 26 27 29 30 31 32 33 35 35 36 37 38 39 40
5 4 3 3 3 4 5 6 7 7 8 8 9 9 9 10 9 10 11 12 13 15 16 18 19 20 20 21 21 21 22 23 24 25 27 28 29 30 32 33 34 36 37 38 39 41 42 43 44
4 5 6 6 7 8 9 9 10 10 11 11 10 11 11 12 11 12 13 14 15 16 18 19 19 19 20 20 21 22 23 24 25 26 27 29 30 31 32 34 35 36 38 39 41 43 44 45 47
7 8 9 10 11 12 12 12 13 13 13 12 12 12 13 13 13 13 14 15 16 17 18 18 19 19 19 20 21 22 24 25 26 27 28 29 30 31 32 34 35 37 38 40 42 43 45 47 49
11 11 12 13 13 14 14 14 14 13 14 14 13 12 13 14 14 14 15 16 16 16 17 17 18 18 19 21 22 24 25 26 27 28 29 30 31 32 33 34 35 37 38 40 42 44 46 48 50
14 14 14 14 14 14 14 14 14 14 14 14 14 13 14 14 15 15 15 15 15 15 15 16 17 18 20 22 24 26 27 28 29 30 30 30 31 32 33 34 36 37 39 41 42 44 47 49 52
14 14 14 14 14 13 14 14 15 15 15 15 15 14 14 14 15 15 15 14 14 14 14 16 17 20 22 24 25 27 28 29 30 31 31 32 32 33 34 36 37 38 40 42 44 46 48 51 53
14 14 14 14 14 14 14 14 15 15 15 15 15 14 14 14 14 14 13 13 12 13 14 16 18 21 23 25 26 27 29 30 32 32 33 34 35 36 37 38 39 41 42 44 46 48 50 53 55
15 14 14 14 15 15 14 14 15 15 15 15 14 14 13 13 13 13 12 12 12 13 14 17 19 22 23 25 26 28 29 31 33 34 35 37 38 39 41 42 43 44 45 47 49 51 53 55 58
16 15 14 14 15 15 14 13 14 14 13 14 13 12 12 13 12 12 12 12 12 14 15 17 19 21 23 25 27 28 30 32 34 35 37 39 40 41 43 44 45 47 48 50 52 54 56 58 61
17 16 15 15 15 15 14 13 13 14 13 13 12 12 12 12 12 12 12 12 13 15 17 18 20 22 23 25 27 29 31 33 35 37 39 40 42 43 44 46 47 48 50 52 55 57 59 62 64
18 17 17 16 16 15 15 13 14 13 13 13 12 12 12 12 13 13 13 14 15 17 18 20 22 23 25 26 28 30 32 35 37 39 41 42 44 45 46 47 49 50 52 54 57 60 62 65 67
19 18 18 18 17 17 16 14 16 14 14 14 13 13 14 14 14 15 16 17 18 19 21 22 24 25 27 28 30 32 34 36 39 41 43 45 46 47 48 49 51 52 54 56 59 62 65 67 69
20 20 20 21 20 19 18 16 18 17 16 16 16 16 16 16 17 18 18 19 21 22 23 25 26 28 29 31 32 34 36 38 41 43 46 47 48 50 50 51 53 54 56 58 61 64 67 69 71
22 22 22 23 23 22 21 19 20 21 19 19 19 19 19 19 20 20 21 22 24 25 27 28 29 31 32 33 35 37 39 41 43 46 48 50 51 52 53 53 54 56 58 60 62 65 68 71 74
23 23 23 24 25 25 23 21 22 24 22 22 22 21 21 22 23 23 24 25 26 28 30 31 32 34 35 37 38 39 41 43 46 48 50 52 54 55 55 56 56 58 59 62 64 67 70 73 77
24 25 25 26 26 27 27 23 24 26 25 24 24 24 24 24 25 26 26 28 29 31 33 34 35 36 38 40 41 43 44 46 49 51 53 55 56 57 58 58 59 60 62 64 66 69 72 75 79
24 26 27 28 28 28 30 28 20 27 26 25 25 26 26 26 27 28 29 30 32 34 36 37 38 40 41 43 44 46 47 49 51 54 56 57 58 59 60 60 61 62 64 65 68 70 73 77 80
26 27 29 29 30 30 29 33 23 26 27 27 27 28 28 29 29 30 31 33 35 37 39 40 41 42 44 45 47 49 50 52 54 56 58 59 60 60 61 62 63 64 65 67 69 72 75 78 81
28 30 31 31 32 31 30 33 28 25 28 28 29 30 30 31 31 32 34 36 38 40 42 43 44 45 47 48 50 52 53 55 56 58 60 61 62 62 62 63 64 65 67 68 70 73 76 80 82
30 32 35 35 34 32 32 32 28 26 28 29 30 31 32 32 33 35 37 40 41 43 45 46 47 48 50 51 52 54 56 57 59 61 62 62 63 63 63 64 65 67 68 69 71 74 78 80 82
31 33 35 39 38 36 35 34 29 28 28 30 31 33 34 35 37 39 41 44 45 46 48 49 50 51 53 54 55 56 58 59 61 62 63 63 64 64 64 65 67 68 68 70 72 75 78 80 82
32 33 35 39 42 41 38 35 31 28 27 28 30 33 36 39 42 44 46 48 49 50 51 52 53 54 55 57 58 59 60 61 62 63 64 64 64 64 66 67 68 69 70 71 73 76 78 80 81
34 35 36 39 43 45 41 37 33 30 29 29 31 34 37 41 45 48 50 52 54 54 54 54 56 57 58 59 60 60 61 62 64 64 65 65 65 65 67 68 69 70 71 72 74 76 79 80 80
34 35 37 40 42 46 47 41 35 35 34 34 35 38 42 45 48 51 54 56 58 58 57 57 58 59 60 60 61 62 62 63 65 65 66 66 65 66 68 69 70 71 72 73 74 76 78 79 78
36 37 39 41 43 45 49 47 37 37 38 40 41 42 44 47 49 52 53 55 56 57 58 58 59 59 60 61 62 62 63 65 66 66 66 66 66 67 69 69 70 71 72 73 74 76 78 78 77

GEFSSGP_500_meanwind_054.txt.gz
Wind_Speed
10 9 8 7 6 5 4 4 4 5 5 5 4 3 2 1 2 3 3 4 4 4 4 4 5 6 7 8 9 11 12 13 14 15 16 16 16 17 17 17 17 17 17 18 18 18 18 19 19
13 12 10 10 9 8 7 6 6 6 5 4 3 2 1 1 2 3 4 5 5 5 6 6 7 8 9 11 12 13 14 15 15 16 16 17 17 17 18 18 19 19 20 21 21 22 22 23 23
14 13 12 11 10 8 7 6 6 5 4 3 2 1 2 3 4 5 6 6 7 7 8 9 10 11 12 13 14 14 15 15 15 15 16 16 17 17 18 19 20 21 22 23 24 25 25 26 27
12 11 10 9 8 7 5 4 3 2 1 1 2 3 4 5 6 7 8 8 9 10 10 11 12 13 13 14 14 14 14 14 14 15 15 16 17 18 19 19 20 21 22 24 25 26 27 28 29
8 7 6 5 4 3 2 1 1 2 3 4 6 7 7 8 9 9 10 10 11 12 12 13 13 13 13 13 13 13 13 14 14 15 15 16 17 18 19 20 20 21 22 23 24 25 26 27 28
4 4 3 2 2 3 3 4 5 6 7 7 9 10 11 11 11 11 12 12 13 13 13 13 13 13 12 12 12 12 13 13 14 15 16 17 18 19 19 20 21 21 22 23 24 24 25 26 27
4 5 5 5 6 7 7 8 9 9 10 11 11 12 13 13 14 14 14 14 14 14 14 13 12 12 11 11 11 12 13 14 16 17 17 18 19 20 21 22 22 23 24 24 25 25 26 27 27
7 8 9 9 9 10 11 11 11 12 12 13 13 13 15 15 15 15 15 15 14 14 13 12 12 11 10 10 11 13 14 16 17 18 19 20 21 22 23 24 25 26 26 27 27 28 29 29 30
9 10 11 11 12 12 13 12 12 13 13 14 14 14 15 15 16 15 15 15 14 13 12 11 10 10 10 11 12 14 15 17 18 19 20 21 22 23 24 26 27 28 29 30 31 32 33 33 34
10 11 12 12 12 12 13 13 12 13 14 14 14 14 15 15 16 15 15 14 13 13 12 11 10 10 10 11 13 14 15 17 18 19 20 21 22 23 25 26 28 29 30 31 32 34 35 37 37
12 12 12 12 12 12 13 13 13 14 15 14 14 15 15 15 15 15 14 13 13 12 12 11 10 10 11 12 13 14 15 16 18 19 20 21 23 24 25 27 28 30 31 32 33 35 36 38 39
13 13 13 13 13 13 13 13 13 14 14 13 14 14 15 15 15 14 14 13 13 13 12 12 11 11 12 12 13 15 16 17 18 20 21 22 24 25 27 28 30 31 33 34 35 36 38 39 41
14 14 14 14 14 13 13 13 14 16 13 13 15 15 14 14 14 14 13 14 14 14 14 14 13 13 14 15 15 17 18 19 20 21 23 24 26 27 29 31 33 34 36 37 38 39 40 41 42
16 16 16 16 15 15 14 14 16 17 14 15 15 15 15 15 15 15 15 15 15 16 16 16 16 16 17 17 18 19 20 22 23 24 26 27 29 30 32 33 36 38 40 41 42 42 43 43 44
18 18 18 18 17 16 15 15 19 17 16 17 17 17 16 17 17 17 17 17 17 18 18 18 19 19 20 21 22 23 24 25 26 28 29 31 32 34 35 37 38 41 43 45 46 47 46 47 47
20 20 20 20 20 18 17 14 22 19 18 19 19 19 19 19 19 19 19 20 20 20 21 21 22 22 23 24 25 26 28 29 30 31 33 34 35 37 38 40 42 44 46 48 50 51 51 50 50
22 22 22 23 22 20 19 14 21 24 22 20 21 21 21 21 21 23 23 23 23 23 24 24 25 26 27 28 28 30 31 32 34 35 36 37 38 40 41 43 45 47 49 51 53 54 54 53 53
24 24 23 25 24 22 20 17 18 26 26 24 24 24 24 23 24 26 25 25 26 26 26 27 28 30 31 31 32 33 35 36 38 39 40 41 42 43 45 46 48 49 51 54 56 57 57 56 55
27 26 25 25 26 24 21 19 19 25 28 27 26 26 26 26 28 28 27 28 28 29 30 31 32 33 34 34 36 37 38 40 41 43 44 45 46 47 48 50 51 53 54 57 59 60 59 58 57
27 27 26 26 26 25 21 18 21 24 26 28 28 28 28 29 30 30 30 30 31 32 33 34 35 36 37 38 40 40 42 43 45 46 48 49 49 50 52 53 54 56 58 60 62 62 61 60 59
26 27 26 26 25 24 23 16 19 23 26 28 29 30 30 30 32 33 33 33 33 34 35 37 38 39 40 42 43 44 45 46 47 49 51 52 53 54 55 56 58 59 61 62 64 64 63 61 60
24 26 26 26 26 25 25 21 19 23 25 28 29 30 31 32 33 34 35 35 36 37 39 40 41 43 44 46 47 48 49 49 51 53 54 55 57 57 58 59 60 62 63 64 66 65 63 62 61
24 26 27 27 27 26 26 25 22 24 25 27 29 30 31 32 34 35 36 37 39 40 42 43 45 46 48 49 50 51 52 53 55 56 57 58 60 60 61 62 63 64 65 66 67 65 64 63 62
25 27 28 28 28 27 27 26 24 26 26 27 29 31 31 32 33 35 37 38 40 42 44 46 48 49 51 52 54 55 56 57 59 59 60 61 62 62 63 64 66 66 67 67 67 65 64 64 64
27 29 31 32 30 29 28 28 25 28 30 31 31 31 32 32 33 34 36 38 41 43 46 48 50 51 53 55 56 57 59 60 61 62 63 64 64 64 64 66 67 67 67 67 67 66 66 65 64
28 30 32 35 35 33 31 29 27 30 32 33 34 35 35 35 35 36 37 39 41 43 46 48 50 52 54 55 57 59 60 62 63 64 65 66 66 66 66 67 67 68 67 67 67 67 66 65 65
30 31 34 37 39 38 36 33 28 30 33 36 39 40 39 38 38 38 39 40 41 43 45 47 50 52 54 55 57 59 61 62 63 64 65 66 66 66 66 66 67 67 67 68 68 67 66 66 66
32 34 36 38 41 44 43 38 33 34 37 39 41 42 41 40 41 41 41 42 42 44 46 47 49 51 53 55 57 58 60 61 63 64 64 65 65 66 66 66 67 67 68 68 68 67 67 67 67
33 34 37 39 41 45 48 46 39 39 40 43 45 45 44 43 43 43 43 43 44 45 46 47 49 50 52 54 55 57 59 61 62 63 63 64 65 65 65 66 67 68 68 68 67 67 67 66 67
37 38 39 41 44 46 50 50 41 41 45 49 50 49 48 47 47 46 45 45 45 46 46 48 49 50 51 52 53 55 57 58 59 60 62 63 64 64 65 66 67 68 67 67 66 66 66 66 66

GEFSSGP_500_meanwind_060.txt.gz
Wind_Speed
7 7 6 6 5 5 5 3 1 1 1 1 1 1 1 1 1 2 2 2 3 4 5 5 6 7 8 9 9 10 11 11 11 12 12 11 11 11 11 12 12 12 13 14 14 15 16 17 18
9 8 8 7 6 6 5 3 2 2 1 1 1 1 1 1 2 2 3 3 4 5 6 7 8 9 10 11 11 12 12 12 12 12 12 12 12 12 12 12 13 13 14 14 15 16 17 18 19
9 8 8 7 6 6 5 3 2 2 1 1 2 3 3 3 4 5 5 5 6 7 8 9 10 11 12 12 13 13 12 12 12 12 12 11 11 12 12 13 13 14 14 14 15 16 17 18 19
7 7 6 5 4 5 3 1 1 1 2 4 4 5 5 6 7 8 8 8 8 9 10 11 12 13 13 14 13 13 12 12 12 11 11 11 12 12 12 13 14 14 15 15 16 16 17 18 19
5 3 3 2 1 1 0 1 3 4 6 7 8 8 7 10 9 10 11 11 11 11 12 14 14 15 14 14 13 13 12 11 11 11 11 12 12 13 14 14 15 15 16 16 17 18 19 19 20
3 3 3 3 3 4 5 5 7 8 9 10 11 12 10 13 12 13 13 13 14 14 15 16 16 16 15 14 14 12 11 11 11 11 12 13 13 14 15 16 16 17 17 18 19 19 20 21 22
5 6 7 7 8 8 10 9 10 12 13 14 14 15 13 16 16 15 16 16 16 16 16 17 16 16 15 14 13 12 11 11 12 12 13 13 14 15 16 17 17 18 19 19 20 21 22 23 24
7 8 10 10 11 12 13 11 13 15 15 16 17 17 14 17 18 17 18 18 18 18 18 18 17 16 16 15 13 12 12 12 12 12 13 14 14 15 16 17 18 19 19 20 21 22 23 24 25
9 10 11 12 12 13 14 13 15 16 17 17 19 17 15 17 19 19 19 19 19 19 18 18 18 17 16 15 14 13 13 12 13 13 13 14 15 15 16 17 18 19 20 21 22 23 24 25 27
10 11 12 12 13 13 15 15 15 15 18 18 18 17 17 17 19 19 19 19 19 19 18 18 18 17 16 16 15 14 14 14 14 14 14 15 15 16 17 18 19 20 21 22 23 24 25 26 27
12 12 13 13 13 14 14 15 16 16 17 18 16 17 17 19 19 19 19 19 19 19 19 20 19 18 18 17 17 16 16 16 16 16 16 16 17 17 18 19 20 21 23 24 25 26 27 28 29
13 14 14 14 15 15 15 15 16 18 18 17 17 19 17 19 19 20 20 19 19 19 20 21 20 19 20 19 19 19 19 19 19 18 19 19 20 20 21 22 24 25 26 27 28 29 30 31 32
16 16 17 17 16 16 16 17 17 19 19 18 18 20 18 19 20 20 20 20 20 21 22 22 22 22 22 22 22 22 22 22 22 22 22 23 23 24 25 26 27 28 29 30 31 33 34 35 36
18 18 19 19 18 17 16 18 20 20 19 20 20 21 21 20 21 21 22 22 22 23 23 23 23 24 25 25 25 25 25 26 26 26 27 27 28 29 29 30 31 32 33 34 36 37 38 39 40
22 22 22 22 21 19 18 18 23 22 20 21 22 22 23 23 23 23 24 25 25 25 26 26 27 27 28 28 29 29 29 29 29 30 31 32 32 33 34 34 36 37 37 39 40 41 42 43 44
26 25 25 25 23 22 21 19 25 25 23 21 22 24 24 24 25 26 27 27 28 28 28 28 29 30 31 32 32 32 32 32 33 34 35 36 37 37 38 39 40 41 42 43 44 45 46 47 48
28 27 27 28 26 24 23 20 25 28 26 23 24 24 25 25 26 27 29 29 30 30 30 30 31 32 34 35 35 36 36 36 37 38 39 40 41 42 43 43 44 45 46 47 48 49 50 51 52
28 28 27 28 28 25 24 22 24 27 27 26 26 26 26 26 27 28 29 30 31 32 32 32 34 35 37 38 38 39 39 40 41 42 43 44 45 46 47 47 48 49 50 51 52 54 54 55 56
25 25 25 25 25 24 23 23 25 25 25 25 26 26 27 27 28 29 29 30 31 33 34 34 35 37 38 39 40 42 43 44 45 45 46 47 48 50 51 52 52 53 54 54 56 58 59 60 61
21 21 21 22 22 21 19 22 25 25 25 25 25 26 27 27 27 28 29 29 30 31 33 35 36 37 39 41 42 44 45 46 46 47 48 50 52 53 54 55 56 57 58 58 59 61 63 63 64
19 20 19 19 19 19 18 19 25 25 25 25 26 26 26 27 27 28 28 29 29 31 32 34 36 37 39 41 43 44 45 46 46 48 50 53 54 55 57 58 59 60 61 62 63 64 66 67 67
18 20 20 20 20 19 20 18 23 27 26 26 27 27 27 27 28 28 29 29 30 31 33 34 36 38 39 41 43 44 46 46 47 50 52 54 56 57 59 60 61 63 64 65 66 68 69 69 69
19 20 21 22 23 21 21 21 21 28 28 27 28 29 29 28 29 29 30 31 31 32 33 35 36 38 40 42 44 46 47 48 51 52 54 55 57 59 60 62 63 65 66 67 68 70 70 70 69
21 22 23 24 25 24 23 22 22 26 28 30 32 32 32 31 31 32 32 33 34 35 36 37 38 40 42 43 45 47 49 51 53 54 56 57 59 60 61 63 65 66 68 69 70 71 71 70 69
23 25 27 28 28 28 27 26 25 28 30 33 34 36 35 35 34 34 35 36 37 37 38 39 41 42 44 45 47 49 50 53 54 56 57 59 60 61 62 64 66 67 69 70 71 71 70 70 69
25 26 28 30 30 30 29 29 28 31 33 34 36 38 39 37 36 36 37 38 39 40 41 42 43 45 46 47 49 50 52 54 55 57 58 60 61 62 63 65 66 68 69 70 70 70 69 69 68
27 27 29 31 33 34 33 32 31 31 32 35 38 41 41 39 37 38 39 40 42 43 44 45 46 47 48 49 51 52 54 55 56 57 59 60 62 63 64 65 66 67 67 68 69 68 68 68 68
29 30 31 33 35 38 36 36 34 33 35 37 39 41 41 39 39 39 40 41 42 43 44 45 46 47 49 50 51 53 55 56 57 58 59 60 62 63 64 65 65 65 66 67 68 68 68 68 68
29 30 32 33 35 37 39 35 33 34 35 37 39 40 39 37 38 39 39 40 41 42 43 44 45 47 49 51 52 54 55 56 57 57 58 60 61 62 62 63 64 64 65 66 66 66 67 67 66
31 31 31 32 33 35 38 36 33 35 37 38 39 38 38 37 38 39 40 40 41 42 43 44 45 47 48 50 51 52 53 55 56 56 57 58 59 60 61 61 62 63 64 64 65 65 66 67 67

GEFSSGP_500_meanwind_066.txt.gz
Wind_Speed
5 4 3 3 2 2 3 4 5 6 6 5 4 4 4 4 4 5 6 6 6 6 6 6 6 6 6 7 7 8 9 10 10 10 10 11 11 11 11 11 11 11 12 12 12 12 12 13 13
7 6 4 3 3 3 3 4 6 6 6 5 5 4 3 3 3 4 5 5 5 6 6 6 6 7 7 8 9 9 10 10 11 11 11 11 11 11 11 11 11 12 12 12 12 13 13 14 14
7 6 5 4 5 4 3 4 5 6 5 5 4 2 2 2 3 4 5 5 6 6 7 7 8 8 9 9 10 10 11 11 11 11 11 10 10 10 11 11 11 12 13 13 13 14 14 15 15
6 6 4 4 4 3 1 1 2 3 3 2 1 1 3 4 4 5 6 7 8 8 8 9 9 10 10 11 11 11 11 11 11 11 10 10 11 11 11 12 13 13 14 14 15 15 15 16 16
5 5 5 5 4 4 3 3 2 1 1 1 3 4 6 7 6 7 8 9 11 11 11 11 12 12 12 12 12 12 12 11 11 10 10 11 11 12 12 13 13 13 14 14 15 15 16 16 17
4 4 5 6 6 6 6 5 5 5 5 5 6 7 9 11 10 9 10 12 13 14 13 13 13 14 14 14 13 13 13 12 11 11 11 12 12 12 12 13 13 13 13 14 14 15 15 16 17
4 5 6 7 8 8 8 7 8 9 9 9 9 10 12 14 13 12 12 13 15 16 15 15 14 15 15 14 14 14 13 13 13 13 12 12 12 12 12 12 13 13 13 13 14 15 15 16 17
5 6 7 7 7 9 9 8 9 11 11 11 11 11 13 15 15 14 14 14 15 17 17 16 16 16 16 16 15 15 15 14 14 14 13 13 13 13 13 13 13 13 14 14 15 15 16 16 17
6 7 7 7 7 9 9 9 10 11 12 12 10 11 13 15 16 16 15 15 15 17 18 17 17 17 17 17 16 16 16 16 15 15 15 15 15 14 14 14 15 15 15 16 16 17 17 18 19
7 8 8 9 8 9 10 10 10 11 13 13 9 10 13 15 16 16 16 15 15 16 17 18 18 18 18 18 18 18 17 17 17 17 17 17 17 17 17 17 17 17 18 18 19 19 20 21 21
10 10 10 10 10 11 11 12 12 12 13 13 12 12 14 16 16 16 16 16 16 16 18 19 19 18 18 19 19 19 20 20 20 20 20 20 21 20 20 20 21 21 21 22 22 23 24 24 25
14 13 13 13 13 13 13 14 15 15 14 14 14 13 15 17 18 17 17 17 17 17 18 19 19 19 20 20 21 21 22 23 23 23 23 24 24 24 24 25 25 25 26 26 27 27 28 29 30
17 17 17 16 16 16 17 17 17 18 16 15 15 14 15 17 19 19 19 19 19 18 19 20 21 21 22 22 23 24 25 26 27 27 27 28 28 29 29 29 29 30 30 30 31 32 32 33 34
21 20 20 20 20 19 20 21 20 19 17 17 17 17 16 17 19 20 21 21 21 21 21 21 22 23 24 25 26 27 28 29 30 30 31 31 32 33 33 34 34 35 35 35 35 36 37 37 38
23 23 24 23 22 22 22 24 24 22 19 19 20 20 19 19 20 21 22 22 23 23 24 24 24 25 26 27 29 30 31 32 32 33 34 35 35 37 37 38 39 40 40 40 40 41 41 42 43
25 24 24 25 24 23 23 23 28 24 21 19 20 20 20 20 20 21 22 23 24 24 25 26 26 27 28 29 31 32 33 34 35 36 37 38 39 41 41 42 43 44 45 45 45 45 46 47 47
23 23 23 23 23 22 22 22 27 25 22 20 20 19 19 19 19 21 22 23 24 25 26 27 28 29 30 31 32 33 35 36 37 39 40 42 44 45 46 46 47 48 49 49 50 50 51 51 52
20 20 20 20 19 18 19 19 22 22 20 20 19 19 19 18 19 19 21 22 23 24 25 27 28 29 31 32 33 35 36 38 39 41 42 44 46 47 49 49 50 52 53 53 54 55 55 55 57
16 16 17 17 17 16 16 16 17 18 18 18 18 19 19 19 19 20 20 21 23 24 25 27 28 30 31 33 34 35 36 38 39 41 43 44 46 48 50 51 53 54 55 56 57 58 58 59 61
14 14 15 15 15 14 15 16 15 16 17 18 18 19 20 20 21 21 21 22 23 25 26 27 29 30 32 34 35 36 37 38 39 41 43 45 48 50 52 53 55 56 57 58 59 60 61 62 63
14 13 13 13 14 15 15 16 16 16 16 18 19 20 20 20 21 22 23 24 25 27 28 29 30 31 33 34 36 37 39 40 41 43 45 47 49 51 52 54 56 57 59 60 61 62 64 64 65
14 14 13 12 13 15 17 18 18 17 17 18 19 20 21 22 23 24 25 26 28 29 30 31 32 33 35 36 37 38 40 41 43 45 46 48 50 51 53 55 57 58 60 61 62 64 66 67 67
14 15 15 14 15 15 17 19 20 19 19 20 21 22 23 24 25 26 27 29 30 31 32 33 34 34 35 36 38 39 41 42 44 46 48 49 51 53 54 56 58 60 61 62 64 66 67 68 69
15 17 17 17 17 17 18 19 21 22 23 23 24 25 25 26 26 26 28 30 32 33 34 34 35 36 37 38 39 41 42 44 45 47 49 50 52 54 56 58 60 61 63 64 65 67 68 69 69
17 19 20 20 19 19 19 20 22 24 24 25 26 27 26 26 25 26 28 30 31 32 33 33 34 35 36 37 38 39 41 42 44 46 48 50 52 55 57 59 61 62 63 65 66 67 67 68 69
19 20 22 23 22 21 21 22 23 25 26 26 27 27 26 25 25 26 27 29 30 31 31 32 33 34 35 36 37 39 40 42 43 45 47 49 51 53 56 58 61 63 65 66 67 68 68 69 70
21 22 23 25 25 24 23 23 25 26 26 26 26 26 25 25 25 26 27 28 30 31 32 32 33 34 36 37 39 41 42 44 45 47 49 51 52 54 56 58 60 62 64 65 66 67 67 69 69
24 24 26 27 28 27 25 23 25 26 26 25 25 25 25 25 26 27 28 29 30 31 32 33 35 36 38 39 41 43 44 46 47 49 50 51 53 54 56 57 59 60 62 63 64 64 65 66 67
25 27 28 28 28 29 27 23 25 25 25 25 24 25 26 27 28 29 30 30 31 33 34 36 38 40 41 43 44 46 48 50 51 52 53 54 55 56 58 59 60 61 62 63 64 64 65 66 66
27 28 28 28 28 28 27 22 23 24 25 25 26 27 29 30 30 31 32 33 35 37 38 40 42 44 46 47 49 51 52 54 55 56 57 58 59 59 60 61 62 63 64 64 64 65 65 66 66

GEFSSGP_500_meanwind_072.txt.gz
Wind_Speed
7 7 6 5 3 2 1 3 5 6 8 9 10 10 10 10 9 10 10 10 10 10 11 11 11 11 11 11 11 12 12 13 13 13 13 13 12 12 12 11 11 11 11 12 12 12 13 13 14
8 8 7 6 6 4 2 1 2 4 6 7 8 9 9 9 9 8 9 9 9 9 10 10 11 11 11 11 12 12 13 13 14 14 14 13 13 12 12 11 11 11 11 11 12 12 13 13 14
7 7 7 6 6 5 4 3 1 2 4 6 7 7 8 8 8 8 8 9 9 9 10 11 11 12 12 13 13 14 14 14 14 14 14 13 13 12 12 11 11 11 11 12 12 12 13 13 14
6 5 5 5 4 4 4 3 2 0 3 4 5 6 7 8 8 8 8 9 10 10 11 11 12 13 13 14 14 15 15 15 15 14 14 13 12 12 12 12 12 12 12 12 13 13 14 14 15
4 4 4 3 2 2 1 0 1 2 4 5 6 7 8 8 9 9 10 10 11 12 13 13 14 14 15 15 16 16 16 15 15 14 14 13 13 12 12 12 12 12 13 13 14 14 14 15 15
3 3 3 2 2 2 2 3 4 5 7 8 8 10 11 10 10 11 12 13 14 14 15 15 16 16 17 17 17 17 17 17 16 15 15 14 14 13 13 13 13 13 14 14 14 14 15 15 15
2 3 3 3 3 4 4 5 6 8 9 10 10 12 14 13 12 13 14 15 16 16 16 17 17 18 18 18 18 18 18 18 17 16 16 16 15 15 15 15 14 14 15 15 15 15 15 15 15
3 3 3 4 5 5 5 6 7 8 10 11 11 12 14 15 14 15 16 16 17 17 18 18 18 19 20 20 20 20 20 19 18 18 18 17 17 17 17 16 16 16 16 16 16 16 16 17 17
6 5 5 5 6 7 7 7 8 8 9 10 10 10 13 15 16 16 17 17 17 18 18 19 19 20 21 21 21 21 21 21 20 20 19 19 19 19 19 19 19 19 19 19 19 19 19 19 19
10 9 8 8 8 9 9 9 9 10 11 10 8 10 12 15 16 17 17 17 18 18 19 19 20 20 21 21 22 22 22 22 22 22 22 22 22 22 22 22 22 22 22 22 23 23 23 23 23
13 13 13 12 11 12 12 12 12 12 13 12 11 13 13 15 17 17 18 18 19 20 20 20 21 21 22 22 23 23 23 23 24 24 24 25 25 25 26 26 26 26 27 27 27 27 27 27 28
17 17 17 17 16 15 16 16 16 16 16 15 14 15 15 16 17 18 19 19 20 21 21 21 21 22 23 23 24 24 25 26 26 27 27 28 28 29 29 30 30 30 31 31 32 32 32 32 33
21 21 21 21 20 20 20 20 20 21 20 18 17 17 18 19 19 20 20 20 21 22 22 22 23 23 24 24 25 26 27 28 29 29 30 31 31 32 33 33 34 35 35 36 36 37 37 37 37
23 24 24 24 24 23 23 24 24 24 23 21 20 21 21 21 21 22 22 22 22 22 23 23 24 25 25 26 27 29 30 30 31 32 33 33 34 35 36 37 38 39 40 41 41 41 42 42 43
25 25 26 27 26 25 25 26 27 25 23 23 22 22 22 22 23 23 23 22 22 23 23 24 25 26 27 28 29 30 31 32 33 34 35 36 37 38 39 40 41 43 44 44 45 46 46 47 48
26 26 27 28 27 25 25 25 27 24 22 22 22 22 22 22 23 23 23 23 23 23 23 24 25 26 27 28 29 30 31 32 34 35 36 38 39 41 42 43 44 46 47 48 48 49 50 51 52
26 25 26 27 25 24 23 23 25 22 20 20 20 21 21 21 22 22 22 23 23 23 24 24 25 26 27 28 29 30 31 33 34 36 37 39 41 42 43 44 45 47 49 50 51 51 53 54 55
24 24 24 24 22 21 21 21 22 20 19 18 19 20 21 21 22 22 23 24 24 25 25 26 27 27 28 29 30 31 32 33 35 36 38 39 41 42 43 44 46 48 49 50 52 53 54 55 56
23 22 22 21 20 19 19 18 19 19 18 18 19 20 21 21 22 23 24 25 26 26 27 28 28 29 29 30 31 32 33 34 35 37 39 40 42 43 44 45 46 48 49 51 52 54 55 55 57
21 20 20 20 19 17 17 17 17 17 18 18 19 20 21 22 23 24 25 26 27 28 29 29 30 31 31 32 32 33 34 35 36 38 39 41 42 43 45 46 47 48 50 51 53 54 56 57 58
20 19 19 19 19 18 17 16 17 17 18 20 21 22 23 24 24 25 26 28 29 30 32 32 33 33 33 33 34 34 35 36 37 38 39 40 41 43 44 46 48 49 51 52 54 55 57 58 59
20 19 19 18 19 18 18 17 17 18 20 21 23 24 25 25 26 27 29 30 31 33 33 34 34 34 34 34 34 34 35 36 37 38 40 41 43 44 45 47 49 50 52 53 55 57 58 60 61
20 19 19 18 19 18 19 20 19 20 21 22 24 25 26 27 28 29 30 31 32 32 32 32 31 31 32 32 32 33 34 35 36 38 39 40 41 43 44 46 47 49 51 53 55 57 59 61 63
20 20 20 19 19 19 20 21 21 21 22 23 25 26 27 28 29 30 30 31 31 31 30 30 30 30 31 32 32 33 34 35 36 37 38 40 41 43 45 47 49 50 52 54 56 58 60 61 63
21 21 22 21 20 20 21 22 23 23 24 25 26 28 29 29 30 30 30 31 30 30 30 30 31 31 31 32 33 33 35 36 37 38 40 42 44 46 48 50 51 53 55 57 58 60 61 63 65
22 23 23 24 22 21 22 23 24 25 26 27 28 29 29 29 29 30 30 30 30 30 30 30 31 31 32 32 33 35 36 38 40 42 44 45 47 49 51 54 55 57 59 61 62 64 65 66 67
24 24 25 26 25 24 24 24 25 26 28 28 29 29 29 29 29 29 30 30 31 31 31 32 32 33 33 35 36 38 40 42 44 46 48 50 52 54 56 59 61 62 64 65 67 68 69 70 71
26 26 26 27 29 28 26 25 27 27 28 29 29 30 30 30 30 30 31 32 32 32 33 34 35 36 38 39 41 43 45 47 49 52 54 56 58 60 62 64 66 68 69 71 72 73 74 75 75
27 27 28 30 30 31 30 27 27 29 30 30 31 31 31 32 32 32 33 34 34 35 36 37 39 40 42 44 46 48 51 53 55 58 60 62 64 66 68 70 72 73 75 76 77 78 78 79 79
29 30 30 31 32 33 33 30 29 30 31 32 33 33 33 33 34 35 35 36 37 38 39 41 42 44 47 49 51 53 56 58 61 63 65 68 70 72 74 76 77 78 79 80 81 82 82 82 82

GEFSSGP_500_meanwind_078.txt.gz
Wind_Speed
7 8 7 7 6 5 5 6 7 8 9 9 10 10 11 11 12 13 13 14 15 15 15 15 15 15 16 16 16 16 17 17 17 17 17 17 17 18 18 18 18 18 19 18 18 18 18 18 18
7 8 8 7 7 6 5 5 5 6 7 8 8 9 10 11 12 13 13 14 14 15 14 14 15 15 15 15 16 16 16 17 17 17 18 18 18 18 19 19 19 19 19 18 18 18 18 18 17
7 7 7 6 6 5 5 4 4 5 5 6 7 8 9 10 11 12 13 13 14 14 14 14 14 15 15 16 16 16 17 17 17 18 18 18 18 19 19 19 19 19 19 18 18 18 18 18 18
5 5 5 4 4 4 4 4 4 4 4 5 6 7 8 10 11 11 12 13 13 14 14 14 15 15 16 16 17 17 17 18 18 18 18 19 18 18 18 18 18 18 18 18 18 18 18 18 18
4 4 3 3 2 2 2 2 2 2 3 4 6 7 8 9 11 12 13 14 14 15 15 15 16 16 17 17 18 18 18 19 19 19 19 19 19 19 18 18 18 18 18 18 18 19 19 19 19
3 3 2 1 1 1 1 2 2 3 4 5 6 8 9 10 11 13 14 15 16 16 16 17 17 18 18 19 19 19 20 20 20 20 20 20 20 19 19 19 19 19 19 19 19 19 19 19 19
3 3 2 2 1 2 2 3 3 4 5 6 8 10 11 11 12 14 16 17 17 18 18 18 19 20 20 20 21 21 21 21 21 21 21 21 21 20 20 20 20 20 20 20 20 20 20 19 20
4 4 3 3 2 2 3 4 4 5 6 7 8 10 12 13 14 15 16 17 18 19 20 20 20 21 21 22 22 23 23 23 23 23 22 22 22 22 22 22 22 22 22 21 21 21 21 21 21
7 6 5 4 4 4 5 5 5 6 7 7 7 9 12 14 15 15 16 17 18 19 20 21 21 22 22 23 23 24 24 24 24 24 24 24 24 24 24 24 24 24 24 23 23 23 23 23 23
10 10 9 8 8 8 7 7 8 9 9 9 9 11 13 14 16 16 17 17 18 19 20 21 22 23 23 24 24 25 25 26 26 26 25 25 25 26 26 26 26 26 26 26 26 26 26 26 26
14 14 13 12 11 12 12 11 12 12 13 12 13 14 15 16 17 18 18 19 19 20 21 22 23 24 24 25 25 26 26 27 27 27 27 27 27 28 28 28 29 29 29 30 30 30 30 30 30
17 17 16 16 15 15 15 16 16 16 16 16 17 18 18 19 19 20 20 20 21 21 22 22 23 24 24 25 26 27 27 28 28 28 29 29 30 30 31 31 32 32 32 33 34 34 34 34 34
19 20 19 19 18 18 19 19 19 20 19 20 20 21 21 22 22 22 22 22 22 23 23 23 23 24 25 26 27 27 28 28 29 30 30 31 32 32 33 34 34 35 36 36 37 37 38 38 39
21 22 21 21 20 20 21 21 21 22 21 21 22 22 23 23 23 23 23 23 23 23 23 23 23 24 25 26 27 27 28 29 30 30 31 32 33 34 34 35 36 37 38 39 39 40 41 41 42
22 22 23 22 22 21 22 23 23 22 22 22 22 22 22 22 22 22 22 22 22 22 22 22 23 23 23 24 25 26 27 28 29 30 31 32 33 34 35 35 36 38 39 39 40 41 42 43 44
22 23 23 23 22 22 22 23 23 21 21 21 21 21 20 20 20 20 20 20 20 20 21 21 22 22 23 24 25 26 27 28 29 30 31 32 33 34 35 36 37 38 39 40 41 42 43 44 46
22 22 23 23 22 21 21 23 22 20 20 20 20 19 19 19 18 18 19 19 19 20 20 21 22 23 23 24 25 26 27 28 29 30 32 33 34 35 36 36 37 39 39 40 41 42 44 45 46
21 22 22 23 21 20 21 21 21 19 19 20 19 19 19 18 18 18 18 19 19 20 21 22 23 24 24 25 26 27 28 29 31 32 33 33 34 35 36 36 38 39 39 41 42 43 44 45 47
22 21 22 22 21 20 21 21 21 19 19 19 19 19 19 19 19 19 19 20 20 21 22 23 25 26 27 28 29 30 31 32 33 33 34 35 35 36 36 37 38 39 40 41 43 44 45 46 48
22 21 21 21 20 20 20 20 20 20 19 19 19 19 19 19 20 20 21 22 23 24 25 26 27 28 29 30 31 32 32 32 33 33 33 34 34 34 35 36 37 38 39 41 43 44 45 46 48
22 21 21 20 20 19 19 20 20 20 20 19 19 19 19 20 21 22 23 24 25 26 27 28 29 30 30 31 31 31 30 30 31 31 32 32 33 34 35 36 38 39 40 41 43 45 46 47 49
22 21 21 21 20 19 20 20 20 20 20 20 20 20 21 21 22 23 25 26 27 28 29 30 30 31 31 30 30 30 30 30 31 31 32 33 34 35 36 37 38 40 41 43 45 47 48 50 52
22 22 21 21 21 20 20 20 19 20 20 21 21 22 22 23 24 25 26 27 28 29 30 30 31 31 30 30 30 30 30 31 32 33 33 34 35 37 38 39 41 43 45 46 48 51 53 54 56
22 23 23 22 21 21 20 20 20 20 21 22 22 23 23 24 25 26 27 28 29 30 30 30 30 30 30 30 30 31 31 32 33 34 35 36 37 39 41 43 44 46 48 51 53 55 57 60 62
23 23 23 23 22 21 20 21 20 20 22 23 23 24 25 26 27 28 28 29 30 30 30 30 31 31 31 31 31 32 33 34 34 35 37 38 40 42 44 46 48 51 54 56 58 61 63 65 67
23 23 23 23 23 21 21 21 20 21 22 23 24 25 26 27 28 29 30 30 30 30 31 31 32 32 32 32 33 34 35 36 38 39 41 43 44 47 49 51 54 56 59 61 64 66 68 70 73
24 23 23 24 24 23 22 21 21 22 23 25 26 27 27 29 30 31 31 31 31 32 32 33 33 33 34 35 36 37 38 40 41 43 45 47 49 51 54 56 59 62 64 67 69 71 73 76 77
24 23 24 24 25 24 23 22 22 23 25 26 27 28 29 30 32 32 33 33 33 34 34 35 35 36 36 37 39 40 41 43 45 47 49 51 54 56 59 62 64 66 69 72 74 76 78 80 81
25 24 25 26 26 26 26 23 23 25 26 28 29 30 31 32 33 34 35 35 36 36 36 37 37 38 39 40 42 43 45 46 49 51 53 56 58 61 64 66 69 71 74 77 79 80 82 83 84
26 25 26 27 28 28 28 26 25 27 29 30 31 32 33 34 35 36 37 37 38 38 38 38 39 40 41 43 45 46 48 50 52 55 58 60 63 66 68 71 73 76 78 80 82 83 85 86 87

GEFSSGP_500_meanwind_084.txt.gz
Wind_Speed
3 3 4 4 5 6 5 5 6 8 9 8 8 9 9 8 8 9 9 10 11 12 13 14 15 15 16 17 17 18 18 19 19 20 20 20 20 20 20 20 20 20 20 20 20 20 20 20 20
3 3 4 4 4 4 4 4 5 6 7 8 9 9 9 8 8 8 9 10 11 12 13 14 15 15 16 17 17 18 18 19 19 20 20 20 20 20 20 20 20 20 20 20 20 20 20 20 20
2 3 3 3 3 2 2 2 4 5 6 8 9 9 9 9 9 9 10 10 11 12 13 14 14 15 16 17 17 18 18 19 19 20 20 20 20 20 20 20 20 20 20 20 20 20 20 20 20
1 2 3 2 2 2 1 1 2 4 5 7 9 9 10 10 10 10 10 11 11 12 13 14 14 15 16 17 18 18 19 19 19 20 20 20 20 20 20 20 20 20 20 20 20 20 20 19 19
2 2 2 2 1 2 1 1 1 3 5 6 7 9 8 9 10 10 11 12 12 13 14 15 15 16 17 17 18 19 19 19 20 20 20 20 20 20 20 20 20 20 19 19 19 19 19 19 19
4 3 3 3 2 2 2 2 3 4 5 6 7 8 7 8 10 11 12 13 13 14 15 16 16 17 18 19 19 19 20 20 20 21 21 21 21 21 21 20 20 20 20 20 19 19 20 20 20
7 6 5 4 3 3 3 4 5 5 6 7 8 9 7 7 10 12 13 14 15 15 16 17 18 19 20 20 21 21 21 21 21 22 22 22 22 22 22 21 21 21 20 20 20 20 20 21 21
10 8 7 7 6 6 6 6 6 7 7 7 8 10 8 8 11 12 13 15 16 17 17 18 20 20 21 22 22 22 23 23 23 23 23 23 23 23 22 22 22 22 21 22 22 22 22 22 22
12 11 10 10 9 9 8 8 8 9 9 9 10 11 11 12 12 13 14 15 16 17 18 19 20 21 22 22 23 24 24 24 24 24 24 24 24 24 24 24 23 23 23 23 23 23 23 23 23
15 14 14 13 12 11 11 11 11 11 12 12 13 13 14 15 15 16 16 16 17 18 19 20 20 22 22 23 24 25 25 26 26 26 26 26 26 25 25 25 25 25 25 25 25 26 26 26 26
19 18 17 16 15 14 14 14 14 14 15 15 16 17 17 18 19 19 19 19 20 21 22 22 22 22 23 24 25 25 26 26 27 27 27 27 27 27 27 27 27 27 27 27 28 28 29 29 29
22 21 20 19 18 18 18 18 18 18 18 18 19 20 20 21 21 22 22 22 22 23 23 24 24 24 24 25 25 26 26 27 27 27 27 28 28 28 28 28 28 29 29 30 30 30 31 32 32
24 24 22 21 21 20 20 20 20 20 21 21 21 22 23 23 23 23 24 24 24 23 24 24 25 25 25 25 25 25 26 26 27 27 27 28 28 28 29 29 29 29 30 31 32 32 33 34 35
26 26 25 24 23 23 22 22 22 22 23 22 23 23 24 24 24 24 24 23 23 23 23 23 23 24 24 24 24 24 25 25 26 26 27 27 28 28 28 29 29 30 31 31 32 33 34 35 36
28 28 27 26 25 24 24 23 24 24 24 24 24 24 24 24 23 23 23 23 22 22 22 22 22 22 23 23 24 24 24 25 25 26 27 28 28 29 29 29 30 31 32 32 33 34 36 37 38
30 29 28 28 26 25 25 24 25 24 24 24 24 24 23 23 22 22 22 22 21 21 21 21 22 22 23 23 23 24 24 25 25 26 27 28 29 29 30 30 31 32 33 33 34 35 36 37 38
30 29 29 29 27 25 25 24 25 23 23 23 23 23 22 22 22 22 21 21 21 21 21 21 21 22 22 23 24 25 26 27 27 28 29 30 31 31 32 32 33 34 34 34 35 36 37 37 38
31 30 29 28 27 25 25 24 24 22 22 23 23 22 21 21 21 21 20 20 20 21 21 21 22 22 23 24 26 27 28 29 29 30 31 32 32 33 33 33 34 34 34 34 35 36 36 37 38
31 29 28 28 28 25 25 24 23 23 22 22 22 22 21 20 20 20 20 20 20 21 21 22 22 23 24 26 27 28 28 29 30 30 31 31 32 32 32 32 32 33 33 34 35 36 36 37 39
30 29 29 29 28 26 25 24 24 23 22 22 22 21 21 20 20 20 20 20 21 21 22 23 23 24 26 26 27 28 29 29 30 30 31 31 31 31 31 32 32 33 34 35 36 38 38 39 41
30 29 29 29 28 27 27 25 24 23 22 22 22 21 21 20 20 20 20 21 22 22 23 23 24 26 27 27 28 29 29 30 30 30 31 31 31 31 32 33 34 35 36 37 38 40 41 42 43
31 29 29 29 28 26 26 25 23 22 22 22 22 21 21 21 21 21 21 22 23 23 24 25 26 27 28 29 30 30 30 31 31 31 31 32 32 33 34 35 36 37 38 39 41 42 43 45 46
31 29 28 28 28 27 24 27 23 22 21 22 22 22 21 21 22 22 22 23 23 24 25 26 28 29 30 30 31 32 32 32 32 33 33 34 34 35 36 37 38 39 40 42 44 45 47 49 50
31 29 29 28 29 27 23 27 25 21 20 22 22 22 22 22 23 23 23 24 24 25 27 28 29 31 31 32 33 33 34 34 34 34 35 36 36 37 38 39 41 42 44 45 47 49 51 53 55
30 28 29 28 28 27 24 26 26 22 21 22 22 23 23 23 23 24 24 25 26 27 28 30 31 32 33 34 34 35 36 36 37 37 38 38 39 40 41 42 44 46 48 49 51 53 55 57 59
29 29 28 27 27 27 25 24 23 21 23 23 23 23 23 24 25 25 26 26 27 29 30 32 33 34 35 36 36 37 38 38 39 40 41 41 42 43 44 46 47 49 51 53 55 56 58 61 63
29 28 26 28 28 28 27 24 22 21 23 25 24 24 24 25 26 27 27 28 29 31 32 34 35 36 37 38 39 39 40 40 41 41 42 43 44 46 47 49 50 52 54 56 58 60 62 65 67
29 27 27 29 28 28 26 25 24 20 23 25 26 26 26 27 27 29 30 31 32 33 35 37 38 38 39 40 41 41 41 42 42 42 44 45 46 48 50 51 53 55 57 59 61 63 66 68 70
29 28 28 29 29 28 26 25 25 23 23 25 27 27 28 29 29 30 32 33 35 37 38 39 40 40 41 42 42 42 42 42 43 44 46 47 49 51 52 54 56 58 60 62 65 67 70 72 74
29 28 27 28 28 28 28 27 26 25 26 27 29 29 30 31 32 33 34 36 38 39 40 41 42 42 43 43 43 43 44 44 46 47 48 49 51 53 55 56 59 61 63 66 68 70 72 75 76